Tracking 28794 objects as of 19-Apr-2024
HD Live streaming from Space Station
objects crossing your sky now

BEIDOU 3M16

Track BEIDOU 3M16 now!
BEIDOU 3M16 is classified as:


NORAD ID: 43648
Int'l Code: 2018-078B
Perigee: 21,520.5 km
Apogee: 21,549.7 km
Inclination: 54.8 °
Period: 773.2 minutes
Semi major axis: 27906 km
RCS: Unknown
Launch date: October 15, 2018
Source: People's Republic of China (PRC)
Launch site: Xichang Space Center, China (XSC)
Your satellite tracking list
Your tracking list is empty




NASA's NSSDC Master Catalog

Two Line Element Set (TLE):
1 43648U 18078B   24109.29726471 -.00000074  00000-0  00000-0 0  9995
2 43648  54.7534 327.5045 0005231  30.3616 329.7071  1.86232355 37465
Source of the keplerian elements: AFSPC